Location: Campillo
(40.8621°N, 4.2488°W)
Time: 16:58:54
(UTC+00:00)

Cosmos 1777 Rocket - Pass Details

Date: 30 September 2021
Orbit: 759 x 775 km, 74.0° (Epoch: 23 October)

Event Time Altitude Azimuth Distance (km) Brightness Sun altitude
Rises 20:13:37 0° 255° (WSW) 3,227 8.1 -25.6°
Reaches altitude 10° 20:17:43 10° 287° (WNW) 2,302 7.5 -26.4°
Maximum altitude 20:19:36 12° 308° (NW) 2,176 7.2 -26.7°
Drops below altitude 10° 20:21:29 10° 330° (NNW) 2,303 7.1 -27.0°
Sets 20:25:37 0° 1° (N) 3,231 7.5 -27.8°
